星链-30154 (STARLINK-30154 )

导读

STARLINK-30154是美国太空探索技术公司星链星座的一员,于2023年8月7日发射入轨。它隶属星链卫星互联网项目,该项目旨在为全球提供高速、低延迟的宽带网络服务,尤其覆盖偏远地区。作为低轨卫星,它和上万颗同系列卫星组网,承担全球卫星互联网通信传输任务,推进星链星座全球覆盖部署。

基本信息
目录编号:
57495
目录名称:
STARLINK-30154
国际标识:
2023-113A
轨道中心:
EARTH
卫星名称:
星链-30154
卫星全名:
星链-30154 (STARLINK-30154 )
卫星状态:
在轨 (已飞行1131 天)
发射日期:
2023-08-07 UTC
国别 :
美国 (US)
星等 :
--
该卫星已列入 空间交会检测服务 Space Conjunction Data Service (SCDS) ,当前飞行风险评估等级: 高风险
轨道信息
数据来源 国际轨道数据
星历时间: 2026-09-08T19:41:16+0800
3天前
查看轨道信息
半长轴: 6861.183km
偏心率: 0.0001715
轨道倾角: 43.003°
近地点辐角 274.969°
升交点赤经 63.546°
平近点角 85.096°
近地点: 481.869km
远地点: 484.223km
周期: 94.267分钟
每日圈数: 15.275812
详细信息
固有亮度:
5
最大亮度:
0.3
卫星平台:
Starlink v2.0 mini
覆盖范围:
全球
运营商:
太空探索技术公司
运营商所在国:
美国
制造商(研发单位):
太空探索技术公司
制造商所在国:
美国
使用方式:
暂无
卫星简介
星链(Starlink)计划是由太空探索技术公司(SpaceX)提出的一个巨型低轨卫星互联网星座项目,计划在2019年至2024年间在太空搭建由约1.2万颗卫星组成的“星链”网络,其中1584颗将部署在地球上空550千米处的近地轨道,并从2020年开始工作。该卫星仍在工作。
2D轨道图
3D轨道图
轨道高度分析图
轨道倾角分析图
轨道综合分析图
查看轨道综合分析图
交会数据列表
事件ID 空间交会对象 最接近时刻(TCA) 交会距离 交会风险概率(CRP) 交会风险指数(CRI) 操作
CDM_260911-052205-749506-680921
2026-09-11T
05:22:51+0000
0.405 km
远距离
2.255954E-4 高风险 0.82
CDM_260913-003105-705705-749521
2026-09-13T
00:31:33+0000
1.296 km
极远距离
6.96348E-6 低风险 0.52
CDM_260911-184305-749506-680921
2026-09-11T
18:43:09+0000
1.405 km
极远距离
5.436635E-6 低风险 0.5
CDM_260912-225705-705705-749521
2026-09-12T
22:57:24+0000
1.658 km
极远距离
3.154495E-6 低风险 0.45
CDM_260911-092605-749506-863122
OBJECT E (68631)
2026-09-11T
09:26:35+0000
1.890 km
极远距离
2.869329E-6 低风险 0.44
CDM_260911-170905-749506-680921
2026-09-11T
17:09:00+0000
1.834 km
极远距离
2.416869E-6 低风险 0.43
CDM_260911-034805-749506-680921
2026-09-11T
03:48:42+0000
1.955 km
极远距离
2.043098E-6 低风险 0.41
CDM_260912-212305-705705-749521
2026-09-12T
21:23:14+0000
2.040 km
极远距离
1.805212E-6 低风险 0.4
CDM_260911-065705-749506-680921
2026-09-11T
06:57:01+0000
2.245 km
极远距离
1.486699E-6 低风险 0.38
CDM_260912-194905-705705-749521
2026-09-12T
19:49:05+0000
2.434 km
极远距离
1.248256E-6 低风险 0.37
与全量物体交会距离演化趋势
与全量物体交会风险概率演化趋势